Tracking 31027 objects as of 19-Jul-2025
HD Live streaming from Space Station
objects crossing your sky now

STARLINK-30110

Track STARLINK-30110 now!
10-day predictions
STARLINK-30110 is classified as:


NORAD ID: 57474
Int'l Code: 2023-107T
Perigee: 495.7 km
Apogee: 517.9 km
Inclination: 43.0 °
Period: 94.6 minutes
Semi major axis: 6877 km
RCS: Unknown
Launch date: July 28, 2023
Source: (TBD)
Launch site: AIR FORCE EASTERN TEST RANGE (AFETR)
Your satellite tracking list
FREGAT DEB
Track 1 satellite(s)




NASA's NSSDC Master Catalog

Two Line Element Set (TLE):
1 57474U 23107T   25199.89372806  .00051500  00000-0  21965-2 0  9995
2 57474  42.9994 144.8544 0016170 149.9853 210.1926 15.22057053110238
Source of the keplerian elements: AFSPC